ELECTRON R/B

Satellite information

Favourite Embed

Satellite Type and Status

ROCKET BODYDECAYED

Key statistics

Satellite ELECTRON R/B at a glance.

Uptime

887

Days in orbit

Revolutions

≈ 16.2

Per day

Orbit

LEO

Low Earth Orbit

Inclination

35.5

Latest

Satellite identification and parameters

Extended collection of information and parameters for ELECTRON R/B.

Object identification

Identified? True

Debris? False

Object name: ELECTRON R/B

International designator: 2023-062D

Object number (NORAD): 56445

Object ID (CCSDS): 56445

Country: UNITED STATES OF AMERICA (US)

Current information (Y/N): Y

RCS size: LARGE

Orbital parameters

Decay date: Oct. 11, 2025

Period: 88.631 minutes

Inclination: 35.4611 deg

SMA: 6584.911 km

Apoapsis: 209.228 km

Periapsis: 204.324 km

RAAN: 335.778 deg

Eccentricy: 0.0003724

Argument of periapsis: 89.8407 deg

Mean anomaly: 270.2774 deg

Mean motion: 16.24717554 rev/day

Mean motion (dot): 0.05699519 rev/day2

B* drag term: 0.0018912751 1/REarth

Two-line elements (TLE)

Creation date: Oct. 11, 2025, 10:47 a.m.

Reference frame: TEME

Reference center: EARTH

Epoch: Oct. 10, 2025, 12:30 p.m. UTC

TLE line 0: 0 ELECTRON R/B

TLE line 1: 1 56445U 23062D 25283.52092476 .05699519 18959-5 18913-2 0 9997

TLE line 2: 2 56445 35.4611 335.7780 0003724 89.8407 270.2774 16.24717554135528

Live tracking on map

Satellite ELECTRON R/B has decayed and is no longer in orbit. No tracking available.

In-orbit conjunctions

Satellite ELECTRON R/B has decayed and is no longer in orbit. No conjunctions available.

Associated space launch

Third and fourth operational (TROPICS-04 & TROPICS-05) satellites for NASA's Time-Resolved Observations of Precipitation Structure and Storm Intensity with a Constellation of SmallSats (TROPICS) mission. The CubeSats are designed to provide rapid-refresh microwave measurements that can be used to determine temperature, pressure, and humidity inside hurricanes as they form and evolve.

ELECTRON R/B was lifted into orbit during the mission ‘Electron | Rocket Like A Hurricane (TROPICS-2)’, on board a Electron space rocket.

The launch took place on May 8, 2023, 1 a.m. from Rocket Lab Launch Complex 1B.

For more information about the launch, click the button.

Launch to space Electron | Rocket Like A Hurricane (TROPICS-2)
Electron | Rocket Like A Hurricane (TROPICS-2)

Agency: National Aeronautics and Space Administration

Status: Launch Successful

Launch date: May 8, 2023, 1 a.m. UTC

Rocket: Electron

Launch pad: Rocket Lab Launch Complex 1B

Location: Rocket Lab Launch Complex 1, Mahia Peninsula, New Zealand

...

Latest news about this satellite

News about space launch
Tech From NASA’s Hurricane-hunting TROPICS Flies on Commercial Satellites

NASA science and American industry have worked hand-in-hand for more than 60 years, transforming novel technologies created with NASA research into commercial products like cochlear implants, memory-foam mattresses, and more. Now, a NASA-funded device for...

News about space launch
NASA’s TROPICS Mission: Offering Detailed Images and Analysis of Tropical Cyclones

Introduction Tropical cyclones represent a danger to life, property, and the economies of communities. Researchers who study tropical cyclones have focused on remote observations using space-based platforms to image these storms, inform forecasts, better ...

News about space launch
NASA TROPICS Constellation Fully Operational & Ready For Hurricane Season

NASA's TROPICS (Time-Resolved Observations of Precipitation structure and storm Intensity with a Constellation of Smallsats) are now fully operational, and are ready to bolster monitoring efforts for the ongoing Atlantic hurricane season.


Newsletter sign-up

Weekly statistics, charts and insights to help you stay on top of the space industry.